Theta_e
320 322 321 326 333 332 335 333 331 328 327 325 328 335 337 323 330 331 307 307 311 315 319 319 320 321 321 321 321 322 324 324 325 324 325 324 325 325 326 327 328 329 330 331 330 331 329 329 329
318 320 323 329 334 338 336 333 329 329 325 324 326 328 332 326 311 308 307 306 312 314 317 318 319 319 319 319 319 320 320 319 320 320 320 320 320 320 320 321 323 325 326 326 326 327 327 327 327
315 320 328 330 334 337 336 333 330 324 321 324 324 317 322 317 309 308 306 307 311 313 316 316 317 317 317 317 317 317 317 317 317 317 317 317 317 317 318 318 318 318 319 320 321 322 322 322 324
319 324 328 333 335 334 334 333 326 322 319 321 323 323 310 306 307 306 305 307 310 312 315 314 314 314 314 315 315 314 315 314 314 314 313 313 313 313 314 314 314 316 317 317 317 317 319 320 324
320 328 335 337 335 333 331 328 324 324 324 321 320 321 313 305 304 304 304 307 309 311 312 312 310 311 311 312 312 311 311 311 310 309 309 310 310 310 311 311 312 313 314 314 314 315 316 319 322
326 329 335 339 337 335 330 325 325 325 323 319 319 318 311 305 304 304 303 305 307 308 309 307 304 306 307 308 308 308 307 307 306 305 304 304 306 306 307 308 309 309 310 311 311 312 316 320 320
326 332 334 334 335 334 331 322 324 325 322 320 318 321 309 305 304 303 303 303 303 304 304 303 301 298 297 299 302 302 302 301 300 298 296 296 298 300 300 302 305 307 308 309 310 315 317 316 317
324 330 334 334 334 334 326 320 315 321 321 310 314 320 315 306 303 302 302 302 302 301 301 300 299 298 299 298 295 295 296 295 295 294 293 293 294 295 295 299 302 306 307 308 310 312 313 313 316
323 331 334 333 334 332 317 319 311 309 312 311 309 310 307 305 302 302 302 301 301 301 301 300 299 297 297 295 293 294 293 292 292 293 292 295 295 295 295 293 296 302 306 307 307 307 309 312 315
325 332 332 328 329 329 319 316 317 312 313 311 307 303 305 302 302 303 303 302 302 301 300 299 298 297 296 294 294 294 293 292 291 291 292 294 293 292 294 296 299 301 302 304 305 306 307 309 310
324 329 329 324 318 313 316 313 313 313 318 316 312 306 303 302 302 304 304 303 302 301 299 299 298 296 295 294 293 292 291 292 293 293 294 294 295 295 296 299 301 301 302 303 303 304 306 307 307
320 323 324 321 313 312 314 312 312 312 317 306 310 307 303 304 304 304 305 303 301 300 299 297 296 295 294 294 294 294 294 293 293 292 293 294 295 295 296 299 300 301 302 302 302 303 304 305 304
316 317 315 314 311 311 310 312 313 315 312 304 306 305 305 305 305 304 304 302 300 300 298 296 294 294 293 293 293 293 293 292 292 292 291 293 294 294 296 298 299 300 301 301 301 301 301 302 302
312 314 313 311 312 310 312 315 310 315 315 305 305 305 305 305 304 304 302 301 300 299 297 295 294 293 292 293 292 292 292 291 291 291 291 291 292 293 296 298 298 299 299 299 298 298 299 299 298
308 310 310 309 308 310 307 316 313 313 306 307 305 306 305 305 303 303 301 300 300 298 296 294 293 292 292 292 291 291 290 291 291 290 290 290 291 293 296 297 297 298 297 296 295 295 295 294 293
308 308 310 309 306 308 311 316 317 315 307 310 309 307 305 304 303 302 301 300 299 297 295 293 291 291 291 291 291 290 290 290 290 290 290 289 290 292 295 297 296 296 296 295 294 294 293 293 292
310 311 312 310 305 307 309 312 312 306 307 310 309 308 305 304 303 301 300 299 298 296 294 292 291 291 290 290 290 290 290 290 290 290 289 289 289 291 294 295 295 296 295 294 293 293 293 292 292
311 312 312 312 307 303 306 307 309 303 306 308 310 308 306 304 302 300 300 298 297 295 294 292 291 290 290 289 290 290 289 289 289 289 288 288 288 290 293 295 295 296 295 293 293 292 292 291 291
309 309 311 310 304 304 307 307 308 309 303 305 307 309 306 304 303 300 299 297 296 295 293 292 291 290 289 290 290 290 290 289 289 288 288 288 288 289 292 294 295 295 295 294 292 292 292 292 292
307 307 307 307 302 300 304 305 305 305 306 305 305 306 306 304 303 300 298 296 295 294 293 291 291 289 289 290 290 291 290 289 289 288 287 287 287 288 290 293 294 294 294 293 293 293 293 292 292
305 305 305 306 305 301 302 303 305 305 305 305 305 306 306 305 303 301 297 296 295 294 292 291 290 289 289 290 289 289 289 288 288 288 287 287 287 287 288 290 292 293 294 293 293 293 294 293 291
303 304 304 304 304 303 301 303 306 307 306 304 304 303 304 304 303 301 297 297 295 293 292 291 290 289 289 289 288 288 289 289 289 288 288 286 286 287 287 288 289 291 291 291 291 291 290 291 290
302 299 301 302 303 303 303 301 304 305 304 305 303 302 302 304 304 302 298 297 296 294 292 291 289 289 288 288 288 288 289 290 289 288 287 287 286 286 286 287 287 287 288 287 287 288 289 290 290
298 299 299 299 300 302 302 302 305 306 306 304 305 304 301 303 303 303 299 298 296 294 292 291 289 289 288 288 288 289 290 289 288 288 287 287 286 286 286 286 286 286 286 287 287 287 287 288 288
298 300 304 305 304 305 301 303 305 306 305 303 303 304 302 301 303 302 301 298 296 294 292 291 290 289 288 288 288 289 289 289 288 288 288 287 287 286 286 286 286 286 286 285 286 286 286 286 287
298 300 305 308 307 306 296 300 304 304 304 302 300 299 301 300 302 302 300 297 296 294 292 291 290 289 288 288 288 288 289 288 288 288 288 288 287 287 286 286 286 285 285 285 285 285 285 285 285
298 299 299 305 297 300 301 304 304 304 303 303 302 299 298 299 300 302 301 297 296 294 292 291 290 289 288 288 288 288 288 288 288 288 288 287 287 287 285 285 285 285 284 284 285 285 284 285 285
295 295 299 299 305 305 303 305 304 305 305 304 303 302 300 298 298 299 300 297 296 293 292 291 290 289 288 288 288 288 287 287 288 287 287 287 287 286 285 285 285 284 284 284 284 284 284 284 284
293 296 296 299 303 304 303 305 309 305 302 301 300 299 299 299 297 298 299 297 296 293 292 291 290 290 288 288 288 287 287 287 287 287 287 287 286 285 285 285 285 284 284 284 284 284 284 283 284
292 297 298 301 303 300 301 303 304 304 300 297 298 298 297 297 297 297 297 297 296 293 292 291 290 290 289 288 287 287 287 287 287 287 287 286 286 285 285 285 284 284 284 284 284 284 283 283 284
Wind_Speed
11 8 6 6 6 7 15 18 5 4 5 2 3 2 2 6 4 1 8 7 9 9 6 8 10 10 11 12 12 13 12 11 9 8 4 7 8 11 11 9 10 10 9 11 10 10 7 5 4
7 6 6 6 8 11 12 18 9 9 6 6 5 2 3 4 5 10 10 9 10 9 8 7 10 10 11 11 12 12 10 10 9 10 10 10 11 11 11 11 10 10 10 9 8 8 8 5 5
5 5 6 4 12 14 12 6 9 8 8 6 4 2 3 5 7 12 10 12 11 9 8 8 9 10 11 11 12 11 11 10 9 9 10 10 10 10 10 10 10 10 9 8 8 7 6 6 8
3 5 5 9 16 14 18 5 4 10 4 4 1 5 5 5 9 8 14 13 12 10 10 9 10 10 11 12 12 11 11 10 10 9 10 10 10 10 9 9 9 9 9 8 9 8 8 9 7
4 4 8 13 18 18 3 5 6 10 7 8 8 6 3 5 9 15 14 13 12 11 10 9 10 10 10 11 10 11 10 9 9 9 9 10 9 9 11 10 10 9 9 8 9 8 8 10 8
5 4 8 14 19 15 1 5 9 10 6 6 6 7 5 11 14 12 13 12 12 11 10 9 10 11 11 10 10 10 10 9 8 8 8 8 10 9 11 11 10 10 9 9 8 8 11 11 7
10 8 14 18 16 10 9 4 10 10 8 9 2 7 6 13 14 13 12 12 11 11 9 7 6 7 8 10 9 9 9 9 8 7 7 7 7 9 9 10 11 11 11 10 10 14 12 8 6
5 8 16 15 12 14 2 6 7 8 7 3 2 5 4 18 17 14 13 12 11 10 9 8 6 6 6 6 6 6 6 5 6 6 7 9 11 11 9 9 11 12 12 12 11 11 9 10 13
3 8 12 15 10 8 2 9 2 3 2 3 3 4 3 24 20 17 14 13 12 10 9 8 7 6 6 6 6 6 7 8 8 8 8 10 8 8 9 11 12 13 12 12 12 13 15 16 13
8 11 16 7 9 8 7 8 1 4 8 8 5 3 14 22 22 19 17 16 14 13 11 8 7 7 6 5 5 5 6 7 7 8 8 8 8 10 12 14 15 14 14 15 15 16 16 13 12
7 14 9 2 1 3 5 7 5 7 11 12 12 13 18 22 21 19 18 16 15 14 12 9 8 7 6 5 5 5 7 8 7 7 7 7 5 6 7 7 7 7 11 10 12 13 15 15 15
9 11 7 1 3 4 5 3 4 10 10 6 3 18 20 19 20 20 19 18 17 15 12 10 8 7 7 6 5 5 5 5 5 5 6 5 5 6 7 7 7 8 9 11 13 14 16 17 18
13 13 5 4 4 6 5 5 9 8 7 0 3 14 18 17 20 19 18 17 17 16 14 11 10 9 8 7 6 6 5 5 5 5 7 6 5 6 7 8 8 9 10 11 12 13 14 16 16
3 6 6 4 6 5 7 4 4 9 12 8 11 14 16 18 21 20 20 19 18 16 15 12 11 10 9 8 7 7 6 6 6 6 6 7 6 6 7 8 9 10 10 10 11 11 13 14 14
2 8 6 10 6 4 5 9 17 17 13 14 13 15 16 17 22 22 21 21 19 17 16 14 13 11 10 10 8 7 6 6 6 6 7 8 6 7 8 9 9 10 11 12 12 12 13 14 14
5 5 11 2 9 4 9 20 14 17 15 17 17 16 17 19 23 23 22 21 20 18 17 15 13 13 12 11 9 8 7 6 6 7 6 7 7 7 8 10 10 10 10 10 11 11 12 13 12
10 13 14 8 13 6 13 16 3 5 12 16 15 16 16 17 22 24 24 22 21 19 19 17 15 15 13 12 10 8 8 7 7 6 6 7 8 9 9 9 10 10 10 10 10 11 11 12 12
14 15 14 14 7 10 12 21 14 9 12 15 16 16 18 19 21 26 24 23 21 20 20 19 17 16 15 13 11 9 8 7 7 6 7 7 8 9 9 10 10 10 10 10 10 11 10 10 11
19 15 17 12 4 6 17 21 20 17 14 16 18 18 19 20 21 25 25 24 23 22 22 22 20 19 17 15 14 11 10 8 7 7 7 8 8 9 10 10 11 11 11 11 11 11 11 9 8
16 19 20 18 5 5 16 24 22 21 21 21 21 20 20 18 19 23 26 27 27 26 25 23 22 21 19 15 14 11 11 8 8 8 8 8 9 10 10 11 11 12 13 11 10 8 6 3 1
16 18 18 17 5 13 15 23 23 21 24 22 22 20 19 21 22 21 26 31 29 29 28 26 24 23 20 17 15 13 11 10 9 9 8 9 9 10 11 11 11 12 11 11 9 6 3 2 1
15 9 12 15 7 8 4 13 16 14 11 15 20 20 21 23 23 22 25 30 32 30 28 27 26 25 22 20 18 18 16 15 12 12 10 10 10 8 10 11 11 11 11 11 10 9 6 4 3
2 3 5 10 12 13 16 8 7 12 16 18 19 21 22 21 22 23 23 32 33 31 30 29 28 26 24 23 19 19 14 14 14 12 13 11 10 9 9 10 11 11 10 10 9 8 7 5 4
3 2 2 4 6 8 15 15 19 15 14 15 14 18 20 21 21 20 27 30 30 30 30 29 29 28 26 24 20 19 17 16 17 16 15 13 11 10 10 10 10 10 10 10 9 9 8 7 6
7 6 3 4 5 8 1 11 19 11 18 9 11 11 12 17 19 20 22 25 31 33 32 31 31 29 28 26 23 20 18 17 17 18 16 15 14 12 11 11 11 10 10 10 9 9 8 7 6
13 7 5 7 8 10 3 8 6 8 14 10 9 9 8 13 17 20 21 27 31 34 34 32 32 30 29 28 25 21 19 17 16 17 15 14 14 12 12 10 10 10 11 10 10 9 7 6 5
7 7 3 5 2 5 9 16 8 14 15 12 10 6 9 10 14 18 17 26 30 33 35 34 32 30 31 28 26 23 21 18 17 17 15 14 13 13 14 13 12 11 10 10 9 8 7 6 5
2 3 3 4 5 8 8 8 10 12 13 6 8 7 9 11 12 15 17 24 28 30 31 32 32 32 32 30 28 26 24 22 18 18 18 17 15 15 16 15 14 13 12 11 9 8 7 6 4
5 5 5 3 5 5 8 6 3 5 6 9 11 11 12 8 11 12 14 23 25 28 30 32 32 31 30 31 29 28 27 26 23 22 21 19 17 17 17 16 15 14 12 11 10 8 7 6 4
3 6 10 5 6 6 6 11 10 12 4 4 7 4 7 6 5 11 13 21 25 27 29 31 30 30 30 30 29 27 26 26 24 22 22 22 21 19 19 17 16 14 13 11 10 8 7 6 5
Wind_Direction
317 306 284 258 239 229 245 239 245 206 219 63 13 307 69 45 357 351 136 134 139 131 121 86 80 73 67 59 57 61 59 58 58 46 16 42 40 35 29 27 28 30 27 27 25 22 11 350 353
302 298 240 258 243 238 239 235 190 220 81 125 122 138 179 89 70 119 139 142 140 131 123 97 88 82 77 73 71 71 66 58 61 58 58 56 56 47 44 38 33 30 29 25 15 8 11 327 311
293 256 259 232 240 244 260 342 227 107 146 175 136 354 20 95 116 132 122 141 139 129 120 99 88 86 86 85 79 72 67 66 62 62 59 60 56 55 56 51 41 37 28 17 14 7 355 335 6
256 204 249 244 248 242 262 171 109 155 162 204 201 156 98 23 142 140 140 139 138 130 121 107 93 86 87 88 88 85 77 71 64 57 55 58 59 56 55 53 50 46 40 33 31 32 27 17 29
223 256 239 245 245 258 267 322 195 193 163 174 189 149 101 127 125 138 141 144 142 134 124 116 100 94 87 88 89 88 88 81 72 65 55 53 55 61 51 49 50 49 41 35 35 42 40 36 46
229 229 239 238 253 248 196 244 209 207 171 142 190 151 118 144 147 149 148 150 149 143 130 119 109 101 96 91 91 89 85 84 79 71 67 67 50 56 58 50 49 45 44 37 41 45 58 73 68
256 224 244 264 271 276 221 198 226 220 194 197 356 184 113 167 159 155 152 151 153 152 146 138 125 100 102 109 102 98 97 89 84 80 80 70 67 58 61 52 50 50 46 44 56 66 84 80 77
268 274 256 250 267 266 67 183 328 249 195 62 309 191 172 176 161 156 154 154 154 152 151 148 137 129 118 100 113 106 102 96 93 84 81 72 42 47 51 56 56 55 55 56 74 78 85 76 79
255 249 250 255 279 272 67 218 134 1 174 191 156 333 67 153 159 159 161 162 160 160 160 160 150 138 128 112 101 78 95 85 82 70 75 58 56 52 51 65 73 67 68 75 75 79 78 66 78
217 241 254 314 217 243 215 240 195 238 203 212 188 126 142 155 167 169 173 173 172 167 166 162 155 150 139 125 114 104 98 102 97 89 86 78 70 74 68 68 69 76 70 74 74 72 72 77 69
218 244 281 185 85 313 242 248 180 232 239 231 216 168 162 169 177 180 181 179 174 170 163 164 161 152 147 136 124 110 100 92 79 76 73 72 74 66 72 70 69 65 74 73 72 70 72 77 77
245 247 259 148 150 92 285 304 232 225 256 344 12 162 172 180 183 185 183 177 172 172 164 163 159 152 144 136 132 121 110 96 90 71 76 75 71 68 76 83 83 78 75 76 76 79 80 79 79
245 251 217 201 204 209 210 235 273 241 252 298 221 163 183 188 187 187 183 178 176 175 167 166 160 155 145 140 136 126 112 109 98 80 69 78 75 78 86 84 85 85 83 82 84 85 84 82 81
8 259 257 233 215 238 239 228 264 246 210 209 177 186 192 196 190 185 185 182 182 175 170 169 164 157 151 147 145 133 121 107 95 84 76 77 82 85 90 92 89 87 86 87 89 90 89 86 85
270 263 235 229 208 236 243 247 226 241 177 203 202 190 195 201 194 194 188 186 184 180 171 171 165 159 150 145 141 134 125 116 109 96 80 78 82 86 98 99 97 93 89 88 88 89 90 90 88
236 247 255 151 172 191 207 258 249 202 191 211 204 197 196 200 198 197 192 188 185 180 175 172 170 163 157 154 146 139 129 122 110 99 87 92 93 92 103 107 104 101 96 93 94 95 96 93 90
214 258 229 251 204 179 197 263 196 174 213 225 210 207 198 198 198 198 195 191 186 182 177 175 172 166 161 152 147 141 132 127 116 109 102 93 94 99 110 111 108 104 100 98 98 97 99 100 97
239 234 260 251 182 218 225 249 253 201 223 233 221 214 206 205 201 197 195 193 188 184 180 177 172 168 163 154 149 143 137 129 126 118 114 108 104 106 113 115 113 114 110 103 106 106 104 106 108
274 278 267 273 117 255 241 254 258 248 213 228 228 220 214 211 200 199 195 192 188 187 182 181 175 173 167 166 161 158 154 149 139 128 124 118 118 118 125 128 125 123 118 118 116 115 112 112 115
254 256 261 270 167 222 275 270 265 256 243 226 229 221 216 209 204 195 191 192 191 188 186 182 181 178 174 172 164 165 161 159 153 144 138 135 132 132 135 140 138 136 132 129 129 133 129 128 192
242 250 259 264 277 238 276 275 258 249 237 236 226 230 217 208 201 193 190 192 190 191 187 185 183 181 177 172 166 159 164 157 157 158 149 146 144 139 139 141 144 141 143 143 143 145 166 166 157
253 258 257 264 256 263 169 290 285 293 237 227 227 223 221 206 202 196 190 192 191 190 188 185 184 182 180 175 171 173 172 171 175 169 163 156 152 146 141 139 143 146 148 148 155 149 150 150 144
270 12 250 262 258 276 255 263 284 258 256 239 228 226 221 212 202 194 192 192 191 188 185 184 182 182 181 181 180 181 180 177 167 166 161 161 160 156 149 143 141 138 139 141 140 139 135 143 164
104 139 193 234 258 253 242 239 276 256 254 248 250 229 221 214 203 198 193 189 189 185 184 182 181 183 182 184 185 186 184 173 170 170 168 168 167 166 162 151 145 139 136 130 134 131 122 115 102
200 189 227 235 211 251 320 243 246 299 292 256 265 277 213 210 202 195 189 185 185 182 183 181 182 183 184 185 187 187 187 183 182 175 175 172 173 174 171 160 151 144 146 142 135 128 118 107 102
193 218 237 255 246 283 115 240 254 251 285 277 274 277 266 207 204 200 193 186 184 181 181 181 182 182 183 185 187 187 188 186 185 182 182 180 179 176 173 161 155 157 153 150 142 131 124 116 106
161 215 14 311 152 270 247 253 256 249 262 276 273 272 255 240 211 202 196 189 183 181 183 182 180 183 184 185 185 186 187 185 183 185 183 181 178 175 170 170 166 165 162 156 148 144 140 136 126
280 344 169 211 248 252 248 261 254 279 277 20 15 311 258 235 214 201 196 189 187 183 181 181 183 183 183 184 184 183 185 186 183 184 182 183 180 178 175 175 175 175 175 171 160 159 161 154 155
172 211 221 290 251 263 284 266 11 344 35 344 338 328 327 271 229 206 196 189 188 179 180 182 182 183 183 185 183 182 184 187 185 188 187 184 182 184 182 182 182 184 184 181 174 174 179 173 180
338 236 193 224 209 239 286 258 290 291 320 294 297 298 356 327 240 212 196 186 183 181 181 182 181 183 185 184 183 182 182 185 187 187 188 188 186 189 188 188 189 192 191 193 190 189 192 195 204